Weather History for Gwinn, MI

Change the Weather History Date:

Monday, May 6, 2013

  Actual Average (KESC) Record (KESC)
Temperature  
Mean Temperature 48 °F -  
Max Temperature 64 °F 55 °F 77 °F (1986)
Min Temperature 31 °F 37 °F 25 °F (1954)
Degree Days  
Heating Degree Days 18    
Moisture  
Dew Point 35 °F    
Average Humidity 78    
Maximum Humidity 95    
Minimum Humidity 42    
Precipitation  
Precipitation 0.00 in - - ()
Sea Level Pressure  
Sea Level Pressure 30.09 in    
Wind  
Wind Speed 4 mph (NNE)    
Max Wind Speed 15 mph    
Max Gust Speed 17 mph    
Visibility 10 miles    
Events      
Averages and records for this station are not official NWS values.
T = Trace of Precipitation, MM = Missing Value Source: NWS Daily Summary

Daily Weather History Graph

Daily Weather History Graph

Search for Another Location

Airport:

Trip Planner

Search our weather history database for the weather conditions in past years. The results will help you decide how hot, cold, wet, or windy it might be!

Date:

Astronomy

May. 06, 2013 Rise Set
Actual Time 6:27 AM EDT 9:05 PM EDT
Civil Twilight 5:53 AM EDT 9:39 PM EDT
Nautical Twilight 5:10 AM EDT 10:22 PM EDT
Astronomical Twilight 4:21 AM EDT 11:12 PM EDT
Moon 4:41 AM EDT (5/6) 5:55 PM EDT (5/6)
Length of Visible Light 15h 45m
Length of Day
14h 37m
Waning Crescent, 11% of the Moon is Illuminated
May 6
Waning Crescent
May 9
New
May 18
First Quarter
May 25
Full
May 31
Last Quarter

Hourly Weather History & Observations

Time (EDT) Temp. Windchill Dew Point Humidity Pressure Visibility Wind Dir Wind Speed Gust Speed Precip Events Conditions
12:16 AM 33.8 °F 28.6 °F 32.0 °F 93% 30.12 in 10.0 mi NNE 5.8 mph - N/A   Clear
12:37 AM 33.8 °F 28.6 °F 32.0 °F 93% 30.12 in 10.0 mi North 5.8 mph - N/A   Clear
12:57 AM 34.3 °F 30.2 °F 32.0 °F 91% 30.11 in 10.0 mi North 4.6 mph - N/A   Clear
1:16 AM 33.4 °F 29.1 °F 31.8 °F 94% 30.11 in 10.0 mi North 4.6 mph - N/A   Clear
1:37 AM 32.2 °F - 30.6 °F 94% 30.11 in 10.0 mi Calm Calm - N/A   Clear
1:57 AM 31.8 °F 28.5 °F 30.0 °F 93% 30.11 in 10.0 mi NNW 3.5 mph - N/A   Clear
2:17 AM 31.8 °F - 30.0 °F 93% 30.10 in 10.0 mi Calm Calm - N/A   Clear
2:37 AM 32.2 °F 27.7 °F 30.9 °F 95% 30.10 in 10.0 mi North 4.6 mph - N/A   Clear
2:57 AM 32.4 °F 29.1 °F 30.9 °F 94% 30.10 in 10.0 mi North 3.5 mph - N/A   Clear
3:17 AM 32.5 °F 29.3 °F 30.9 °F 94% 30.09 in 10.0 mi North 3.5 mph - N/A   Clear
3:37 AM 32.4 °F - 30.9 °F 94% 30.09 in 10.0 mi Calm Calm - N/A   Clear
3:57 AM 31.8 °F 27.3 °F 29.7 °F 92% 30.09 in 10.0 mi North 4.6 mph - N/A   Clear
4:17 AM 32.0 °F 27.5 °F 30.2 °F 93% 30.09 in 10.0 mi North 4.6 mph - N/A   Clear
4:37 AM 31.8 °F 27.3 °F 29.5 °F 91% 30.10 in 10.0 mi North 4.6 mph - N/A   Clear
4:57 AM 33.3 °F 28.9 °F 31.3 °F 92% 30.10 in 10.0 mi North 4.6 mph - N/A   Clear
5:17 AM 32.9 °F 29.8 °F 30.9 °F 92% 30.09 in 10.0 mi North 3.5 mph - N/A   Clear
5:37 AM 33.1 °F - 31.3 °F 93% 30.10 in 10.0 mi Calm Calm - N/A   Clear
5:57 AM 32.5 °F 28.1 °F 30.9 °F 94% 30.10 in 10.0 mi North 4.6 mph - N/A   Clear
6:50 AM 32.0 °F 26.4 °F 30.2 °F 93% 30.11 in 10.0 mi North 5.8 mph - N/A   Clear
7:50 AM 39.2 °F 35.9 °F 37.4 °F 93% 30.11 in 10.0 mi NNE 4.6 mph - N/A   Clear
8:50 AM 44.6 °F 41.4 °F 37.4 °F 76% 30.12 in 10.0 mi NNE 5.8 mph - N/A   Clear
9:50 AM 48.2 °F - 39.2 °F 71% 30.13 in 10.0 mi Calm Calm - N/A   Clear
10:55 AM 53.6 °F - 39.2 °F 58% 30.12 in 10.0 mi Calm Calm - N/A   Clear
11:50 AM 57.2 °F - 39.2 °F 51% 30.11 in 10.0 mi Calm Calm - N/A   Clear
12:50 PM 62.6 °F - 39.2 °F 42% 30.10 in 10.0 mi Calm Calm - N/A   Clear
1:50 PM 64.4 °F - 41.0 °F 42% 30.09 in 10.0 mi ENE 8.1 mph - N/A   Clear
2:50 PM 64.4 °F - 41.0 °F 42% 30.07 in 10.0 mi NE 12.7 mph - N/A   Clear
3:50 PM 60.8 °F - 41.0 °F 48% 30.06 in 10.0 mi NE 13.8 mph - N/A   Clear
4:50 PM 60.8 °F - 39.2 °F 45% 30.05 in 10.0 mi NE 15.0 mph - N/A   Clear
5:50 PM 60.8 °F - 39.2 °F 45% 30.05 in 10.0 mi NE 11.5 mph 17.3 mph N/A   Clear
6:50 PM 59.0 °F - 37.4 °F 45% 30.04 in 10.0 mi NE 10.4 mph - N/A   Clear
7:50 PM 53.6 °F - 37.4 °F 54% 30.05 in 10.0 mi NE 8.1 mph - N/A   Clear
8:50 PM 48.2 °F - 37.4 °F 66% 30.06 in 10.0 mi NE 3.5 mph - N/A   Clear
9:50 PM 42.8 °F 40.1 °F 37.4 °F 81% 30.07 in 10.0 mi North 4.6 mph - N/A   Clear
10:17 PM 43.2 °F - 37.4 °F 80% 30.07 in 10.0 mi Calm Calm - N/A   Clear
10:37 PM 42.4 °F - 37.0 °F 81% 30.08 in 10.0 mi Calm Calm - N/A   Clear
10:57 PM 42.3 °F - 37.4 °F 83% 30.08 in 10.0 mi Calm Calm - N/A   Clear
11:17 PM 42.3 °F - 37.2 °F 82% 30.08 in 10.0 mi Calm Calm - N/A   Clear
11:37 PM 40.6 °F - 36.1 °F 84% 30.08 in 10.0 mi Calm Calm - N/A   Clear
11:57 PM 39.9 °F - 35.8 °F 85% 30.08 in 10.0 mi Calm Calm - N/A   Clear